| time (UTC) | temp F | wind direction | speed MPH | gust MPH | rain 1hr in | rain 24hr in | rain mn in | humidity % | barometer mb |
| 20260507082041 | 50 | 246 | 2.0 | 5.0 | 0.00 | 0.00 | 0.00 | 51 | 1013.6 |
| 20260507081020 | 50 | 285 | 1.0 | 3.0 | 0.00 | 0.00 | 0.00 | 50 | 1013.6 |
| 20260507080020 | 51 | 307 | 1.0 | 3.0 | 0.00 | 0.00 | 0.00 | 49 | 1013.5 |
| 20260507075021 | 51 | 320 | 2.0 | 4.0 | 0.00 | 0.00 | 0.00 | 48 | 1013.4 |
| 20260507074017 | 52 | 274 | 2.0 | 6.0 | 0.00 | 0.00 | 0.00 | 47 | 1013.3 |
| 20260507073037 | 52 | 306 | 1.0 | 4.0 | 0.00 | 0.00 | 0.00 | 46 | 1013.2 |
| 20260507072042 | 52 | 328 | 2.0 | 7.0 | 0.00 | 0.00 | 0.00 | 47 | 1013.0 |
| 20260507071021 | 52 | 332 | 2.0 | 5.0 | 0.00 | 0.00 | 0.00 | 49 | 1012.9 |
| 20260507070018 | 52 | 318 | 2.0 | 4.0 | 0.00 | 0.00 | 0.00 | 49 | 1012.8 |
| 20260507065038 | 52 | 343 | 2.0 | 4.0 | 0.00 | 0.00 | 0.00 | 50 | 1012.8 |
| 20260507064018 | 52 | 333 | 2.0 | 4.0 | 0.00 | 0.00 | 0.00 | 49 | 1012.7 |
| 20260507063020 | 52 | 316 | 2.0 | 3.0 | 0.00 | 0.00 | 0.00 | 48 | 1012.7 |
| 20260507062019 | 53 | 338 | 2.0 | 3.0 | 0.00 | 0.00 | 0.00 | 47 | 1012.6 |
| 20260507061019 | 53 | 327 | 1.0 | 3.0 | 0.00 | 0.00 | 0.00 | 46 | 1012.6 |
| 20260507060019 | 54 | 340 | 2.0 | 3.0 | 0.00 | 0.00 | 0.00 | 46 | 1012.5 |
| 20260507055021 | 54 | 198 | 0.0 | 2.0 | 0.00 | 0.00 | 0.00 | 44 | 1012.5 |
| 20260507054019 | 55 | 201 | 1.0 | 3.0 | 0.00 | 0.00 | 0.00 | 43 | 1012.4 |
| 20260507053019 | 55 | 323 | 0.0 | 4.0 | 0.00 | 0.00 | 0.00 | 43 | 1012.3 |
| 20260507052019 | 55 | 320 | 0.0 | 3.0 | 0.00 | 0.00 | 0.00 | 42 | 1012.2 |
| 20260507051019 | 56 | 330 | 0.0 | 4.0 | 0.00 | 0.00 | 0.00 | 42 | 1012.1 |
| 20260507050021 | 56 | 0.0 | 0.0 | 0.00 | 0.00 | 0.00 | 41 | 1012.1 | |
| 20260507045017 | 57 | 337 | 0.0 | 3.0 | 0.00 | 0.00 | 0.00 | 40 | 1012.0 |
| 20260507044019 | 58 | 334 | 1.0 | 4.0 | 0.00 | 0.00 | 0.00 | 39 | 1011.9 |
| 20260507043020 | 58 | 330 | 2.0 | 4.0 | 0.00 | 0.00 | 0.00 | 38 | 1011.9 |
| 20260507042020 | 59 | 345 | 2.0 | 3.0 | 0.00 | 0.00 | 0.00 | 37 | 1011.8 |
| 20260507041018 | 60 | 343 | 2.0 | 3.0 | 0.00 | 0.00 | 0.00 | 36 | 1011.7 |
| 20260507040038 | 61 | 347 | 2.0 | 3.0 | 0.00 | 0.00 | 0.00 | 33 | 1011.6 |
| 20260507035018 | 62 | 337 | 1.0 | 4.0 | 0.00 | 0.00 | 0.00 | 32 | 1011.5 |
| 20260507034018 | 62 | 353 | 1.0 | 5.0 | 0.00 | 0.00 | 0.00 | 31 | 1011.3 |
| 20260507033019 | 63 | 326 | 1.0 | 3.0 | 0.00 | 0.00 | 0.00 | 30 | 1011.2 |
| 20260507032018 | 64 | 290 | 2.0 | 8.0 | 0.00 | 0.00 | 0.00 | 29 | 1011.1 |
| 20260507031019 | 65 | 32 | 1.0 | 4.0 | 0.00 | 0.00 | 0.00 | 28 | 1011.0 |
| 20260507030039 | 66 | 301 | 4.0 | 9.0 | 0.00 | 0.00 | 0.00 | 27 | 1010.7 |
| 20260507025019 | 66 | 329 | 4.0 | 8.0 | 0.00 | 0.00 | 0.00 | 27 | 1010.7 |
| 20260507024019 | 67 | 332 | 3.0 | 7.0 | 0.00 | 0.00 | 0.00 | 27 | 1010.6 |
| 20260507023019 | 67 | 338 | 4.0 | 9.0 | 0.00 | 0.00 | 0.00 | 27 | 1010.6 |
| 20260507022020 | 67 | 323 | 4.0 | 8.0 | 0.00 | 0.00 | 0.00 | 26 | 1010.5 |
| 20260507021018 | 68 | 328 | 4.0 | 9.0 | 0.00 | 0.00 | 0.00 | 25 | 1010.5 |
| 20260507020017 | 68 | 314 | 3.0 | 8.0 | 0.00 | 0.00 | 0.00 | 25 | 1010.4 |
| 20260507015022 | 68 | 327 | 3.0 | 7.0 | 0.00 | 0.00 | 0.00 | 25 | 1010.5 |
| 20260507014020 | 68 | 4 | 4.0 | 9.0 | 0.00 | 0.00 | 0.00 | 25 | 1010.4 |
| 20260507013017 | 68 | 344 | 5.0 | 12.0 | 0.00 | 0.00 | 0.00 | 25 | 1010.3 |
| 20260507012018 | 69 | 322 | 3.0 | 8.0 | 0.00 | 0.00 | 0.00 | 26 | 1010.3 |
| 20260507011018 | 68 | 329 | 3.0 | 8.0 | 0.00 | 0.00 | 0.00 | 27 | 1010.3 |
| 20260507010019 | 69 | 313 | 3.0 | 11.0 | 0.00 | 0.00 | 0.00 | 27 | 1010.2 |
| 20260507005018 | 69 | 17 | 2.0 | 6.0 | 0.00 | 0.00 | 0.00 | 28 | 1010.2 |
| 20260507004019 | 69 | 225 | 3.0 | 11.0 | 0.00 | 0.00 | 0.00 | 29 | 1010.2 |
| 20260507003019 | 69 | 252 | 4.0 | 11.0 | 0.00 | 0.00 | 0.00 | 30 | 1010.1 |
| 20260507002020 | 69 | 297 | 4.0 | 13.0 | 0.00 | 0.00 | 0.00 | 30 | 1010.1 |
| 20260507001018 | 68 | 274 | 4.0 | 9.0 | 0.00 | 0.00 | 0.00 | 31 | 1010.1 |
| 20260507000039 | 68 | 243 | 5.0 | 11.0 | 0.00 | 0.00 | 0.00 | 32 | 1010.1 |
| 20260506235019 | 68 | 253 | 5.0 | 10.0 | 0.00 | 0.00 | 0.00 | 32 | 1010.1 |
| 20260506234019 | 69 | 241 | 4.0 | 9.0 | 0.00 | 0.00 | 0.00 | 31 | 1010.1 |
| 20260506233019 | 68 | 251 | 3.0 | 8.0 | 0.00 | 0.00 | 0.00 | 32 | 1010.2 |
| 20260506232020 | 68 | 277 | 4.0 | 8.0 | 0.00 | 0.00 | 0.00 | 32 | 1010.2 |
| 20260506231017 | 68 | 325 | 4.0 | 11.0 | 0.00 | 0.00 | 0.00 | 33 | 1010.2 |
| 20260506230018 | 67 | 252 | 3.0 | 7.0 | 0.00 | 0.00 | 0.00 | 31 | 1010.2 |
| 20260506225019 | 67 | 283 | 4.0 | 9.0 | 0.00 | 0.00 | 0.00 | 33 | 1010.3 |
| 20260506224019 | 67 | 272 | 5.0 | 15.0 | 0.00 | 0.00 | 0.00 | 31 | 1010.3 |
| 20260506223018 | 67 | 276 | 4.0 | 11.0 | 0.00 | 0.00 | 0.00 | 31 | 1010.4 |
| 20260506222018 | 67 | 276 | 4.0 | 10.0 | 0.00 | 0.00 | 0.00 | 32 | 1010.4 |
| 20260506221018 | 67 | 330 | 3.0 | 8.0 | 0.00 | 0.00 | 0.00 | 33 | 1010.5 |
| 20260506220039 | 66 | 284 | 4.0 | 9.0 | 0.00 | 0.00 | 0.00 | 31 | 1010.6 |
| 20260506215020 | 66 | 307 | 4.0 | 9.0 | 0.00 | 0.00 | 0.00 | 30 | 1010.5 |
| 20260506214018 | 66 | 279 | 4.0 | 10.0 | 0.00 | 0.00 | 0.00 | 31 | 1010.6 |
| 20260506213019 | 66 | 283 | 5.0 | 11.0 | 0.00 | 0.00 | 0.00 | 32 | 1010.6 |
| 20260506212039 | 66 | 243 | 5.0 | 11.0 | 0.00 | 0.00 | 0.00 | 32 | 1010.6 |
| 20260506211020 | 65 | 286 | 4.0 | 9.0 | 0.00 | 0.00 | 0.00 | 33 | 1010.6 |
| 20260506210021 | 65 | 258 | 4.0 | 13.0 | 0.00 | 0.00 | 0.00 | 34 | 1010.6 |
| 20260506205016 | 64 | 316 | 5.0 | 11.0 | 0.00 | 0.00 | 0.00 | 33 | 1010.6 |
| 20260506204020 | 64 | 322 | 5.0 | 9.0 | 0.00 | 0.00 | 0.00 | 33 | 1010.6 |
| 20260506203019 | 64 | 325 | 5.0 | 17.0 | 0.00 | 0.00 | 0.00 | 34 | 1010.6 |
| 20260506202020 | 64 | 272 | 4.0 | 9.0 | 0.00 | 0.00 | 0.00 | 36 | 1010.5 |
| 20260506201017 | 63 | 315 | 4.0 | 12.0 | 0.00 | 0.00 | 0.00 | 38 | 1010.5 |
| 20260506200019 | 63 | 314 | 4.0 | 10.0 | 0.00 | 0.00 | 0.00 | 38 | 1010.6 |
| 20260506195019 | 62 | 286 | 5.0 | 10.0 | 0.00 | 0.00 | 0.00 | 37 | 1010.6 |
| 20260506194017 | 62 | 256 | 5.0 | 10.0 | 0.00 | 0.00 | 0.00 | 38 | 1010.5 |
| 20260506193019 | 63 | 269 | 5.0 | 14.0 | 0.00 | 0.00 | 0.00 | 38 | 1010.5 |
| 20260506192018 | 63 | 248 | 3.0 | 10.0 | 0.00 | 0.00 | 0.00 | 39 | 1010.5 |
| 20260506191018 | 63 | 301 | 3.0 | 11.0 | 0.00 | 0.00 | 0.00 | 38 | 1010.5 |
| 20260506190040 | 64 | 275 | 5.0 | 13.0 | 0.00 | 0.00 | 0.00 | 39 | 1010.5 |
| 20260506185018 | 63 | 311 | 4.0 | 8.0 | 0.00 | 0.00 | 0.00 | 42 | 1010.5 |
| 20260506184100 | 62 | 249 | 4.0 | 11.0 | 0.00 | 0.00 | 0.00 | 46 | 1010.6 |
| 20260506183019 | 62 | 254 | 4.0 | 10.0 | 0.00 | 0.00 | 0.00 | 47 | 1010.6 |
| 20260506182040 | 61 | 247 | 3.0 | 7.0 | 0.00 | 0.00 | 0.00 | 50 | 1010.7 |
| 20260506181041 | 61 | 237 | 3.0 | 10.0 | 0.00 | 0.00 | 0.00 | 51 | 1010.8 |
| 20260506180016 | 61 | 232 | 5.0 | 11.0 | 0.00 | 0.00 | 0.00 | 49 | 1010.8 |
| 20260506175019 | 61 | 257 | 3.0 | 8.0 | 0.00 | 0.00 | 0.00 | 52 | 1011.0 |
| 20260506174040 | 60 | 235 | 4.0 | 10.0 | 0.00 | 0.00 | 0.00 | 52 | 1011.1 |
| 20260506173021 | 60 | 255 | 5.0 | 11.0 | 0.00 | 0.00 | 0.00 | 52 | 1011.1 |
| 20260506172020 | 60 | 275 | 4.0 | 9.0 | 0.00 | 0.00 | 0.00 | 51 | 1011.2 |
| 20260506171017 | 60 | 249 | 4.0 | 9.0 | 0.00 | 0.00 | 0.00 | 53 | 1011.2 |
| 20260506170017 | 60 | 259 | 4.0 | 10.0 | 0.00 | 0.00 | 0.00 | 54 | 1011.3 |
| 20260506165020 | 60 | 245 | 3.0 | 9.0 | 0.00 | 0.00 | 0.00 | 55 | 1011.4 |
| 20260506164021 | 59 | 224 | 4.0 | 12.0 | 0.00 | 0.00 | 0.00 | 56 | 1011.4 |
| 20260506163018 | 59 | 272 | 4.0 | 8.0 | 0.00 | 0.00 | 0.00 | 57 | 1011.4 |
| 20260506162018 | 58 | 274 | 3.0 | 6.0 | 0.00 | 0.00 | 0.00 | 59 | 1011.4 |
| 20260506161019 | 58 | 266 | 4.0 | 10.0 | 0.00 | 0.00 | 0.00 | 60 | 1011.4 |
| 20260506160018 | 58 | 286 | 2.0 | 8.0 | 0.00 | 0.00 | 0.00 | 60 | 1011.4 |
| 20260506155018 | 57 | 254 | 3.0 | 6.0 | 0.00 | 0.00 | 0.00 | 60 | 1011.4 |
| 20260506154018 | 57 | 299 | 3.0 | 7.0 | 0.00 | 0.00 | 0.00 | 60 | 1011.4 |
| 20260506153019 | 57 | 283 | 3.0 | 6.0 | 0.00 | 0.00 | 0.00 | 60 | 1011.4 |
| 20260506152021 | 56 | 262 | 2.0 | 5.0 | 0.00 | 0.00 | 0.00 | 60 | 1011.3 |
| 20260506151021 | 56 | 259 | 2.0 | 5.0 | 0.00 | 0.00 | 0.00 | 60 | 1011.3 |
| 20260506150038 | 55 | 249 | 3.0 | 8.0 | 0.00 | 0.00 | 0.00 | 61 | 1011.3 |
| 20260506145019 | 55 | 232 | 2.0 | 8.0 | 0.00 | 0.00 | 0.00 | 61 | 1011.3 |
| 20260506144019 | 55 | 237 | 2.0 | 5.0 | 0.00 | 0.00 | 0.00 | 61 | 1011.2 |
| 20260506143020 | 55 | 254 | 1.0 | 3.0 | 0.00 | 0.00 | 0.00 | 60 | 1011.2 |
| 20260506142020 | 55 | 246 | 1.0 | 3.0 | 0.00 | 0.00 | 0.00 | 60 | 1011.2 |
| 20260506141017 | 54 | 246 | 1.0 | 4.0 | 0.00 | 0.00 | 0.00 | 61 | 1011.2 |
| 20260506140019 | 53 | 256 | 1.0 | 4.0 | 0.00 | 0.00 | 0.00 | 62 | 1011.2 |
| 20260506135022 | 53 | 247 | 2.0 | 5.0 | 0.00 | 0.00 | 0.00 | 62 | 1011.1 |
| 20260506134043 | 53 | 243 | 3.0 | 6.0 | 0.00 | 0.00 | 0.00 | 62 | 1011.0 |
| 20260506133019 | 53 | 251 | 2.0 | 4.0 | 0.00 | 0.00 | 0.00 | 63 | 1010.9 |
| 20260506132018 | 52 | 286 | 3.0 | 5.0 | 0.00 | 0.00 | 0.00 | 62 | 1010.8 |
| 20260506131018 | 52 | 243 | 2.0 | 5.0 | 0.00 | 0.00 | 0.00 | 61 | 1010.8 |
| 20260506130018 | 51 | 254 | 2.0 | 3.0 | 0.00 | 0.00 | 0.00 | 63 | 1010.8 |
| 20260506125019 | 51 | 254 | 1.0 | 3.0 | 0.00 | 0.00 | 0.00 | 63 | 1010.8 |
| 20260506124019 | 51 | 269 | 2.0 | 5.0 | 0.00 | 0.00 | 0.00 | 63 | 1010.7 |
| 20260506123020 | 52 | 316 | 2.0 | 3.0 | 0.00 | 0.00 | 0.00 | 61 | 1010.7 |
| 20260506122019 | 52 | 274 | 1.0 | 3.0 | 0.00 | 0.00 | 0.00 | 60 | 1010.6 |
| 20260506121019 | 53 | 262 | 1.0 | 5.0 | 0.00 | 0.00 | 0.00 | 59 | 1010.7 |
| 20260506120017 | 54 | 218 | 2.0 | 5.0 | 0.00 | 0.00 | 0.00 | 57 | 1010.6 |
| 20260506115021 | 54 | 240 | 2.0 | 5.0 | 0.00 | 0.00 | 0.00 | 57 | 1010.5 |
| 20260506114022 | 54 | 258 | 2.0 | 4.0 | 0.00 | 0.00 | 0.00 | 56 | 1010.6 |
| 20260506113020 | 54 | 239 | 2.0 | 6.0 | 0.00 | 0.00 | 0.00 | 56 | 1010.5 |
| 20260506112017 | 54 | 273 | 2.0 | 4.0 | 0.00 | 0.00 | 0.00 | 54 | 1010.5 |
| 20260506111017 | 54 | 240 | 2.0 | 4.0 | 0.00 | 0.00 | 0.00 | 55 | 1010.4 |
| 20260506110017 | 53 | 218 | 1.0 | 4.0 | 0.00 | 0.00 | 0.00 | 57 | 1010.4 |
| 20260506105103 | 54 | 205 | 1.0 | 3.0 | 0.00 | 0.00 | 0.00 | 55 | 1010.3 |
| 20260506104023 | 55 | 217 | 2.0 | 4.0 | 0.00 | 0.00 | 0.00 | 53 | 1010.2 |
| 20260506103018 | 55 | 221 | 2.0 | 5.0 | 0.00 | 0.00 | 0.00 | 53 | 1010.1 |
| 20260506102018 | 55 | 218 | 2.0 | 4.0 | 0.00 | 0.00 | 0.00 | 52 | 1010.1 |
| 20260506101018 | 55 | 220 | 2.0 | 7.0 | 0.00 | 0.00 | 0.00 | 52 | 1010.0 |
| 20260506100020 | 56 | 230 | 2.0 | 5.0 | 0.00 | 0.00 | 0.00 | 51 | 1009.9 |
| 20260506095020 | 56 | 217 | 2.0 | 4.0 | 0.00 | 0.00 | 0.00 | 50 | 1009.9 |
| 20260506094019 | 56 | 226 | 2.0 | 4.0 | 0.00 | 0.00 | 0.00 | 49 | 1009.8 |
| 20260506093019 | 56 | 236 | 2.0 | 5.0 | 0.00 | 0.00 | 0.00 | 50 | 1009.7 |
| 20260506092020 | 56 | 277 | 2.0 | 5.0 | 0.00 | 0.00 | 0.00 | 50 | 1009.7 |
| 20260506091019 | 56 | 217 | 2.0 | 5.0 | 0.00 | 0.00 | 0.00 | 50 | 1009.6 |
| 20260506090019 | 57 | 218 | 1.0 | 3.0 | 0.00 | 0.00 | 0.00 | 49 | 1009.5 |
| 20260506085021 | 57 | 254 | 1.0 | 4.0 | 0.00 | 0.00 | 0.00 | 48 | 1009.5 |
| 20260506084020 | 57 | 284 | 1.0 | 3.0 | 0.00 | 0.00 | 0.00 | 48 | 1009.5 |
| 20260506083021 | 57 | 267 | 2.0 | 5.0 | 0.00 | 0.00 | 0.00 | 48 | 1009.5 |